EHI
9 10 9 8 7 7 8 12 14 15 16 14 14 13 12 11 10 9 9 10 12 14 16 15 14 12 9 7 7 8 9 9 9 9 7 6 5 5 5 4 4 3 2
9 9 9 8 9 9 9 10 12 15 16 15 15 14 13 11 10 9 9 10 11 12 13 13 13 12 9 6 6 6 8 8 9 10 7 5 4 3 4 4 3 3 3
7 7 7 8 9 9 8 7 9 13 15 15 14 13 11 10 9 8 9 9 9 10 10 10 11 10 7 5 5 6 6 7 8 9 8 5 3 2 2 2 3 3 3
4 5 7 8 9 8 7 6 6 8 11 11 10 9 9 8 6 7 7 8 8 8 8 7 7 7 5 3 4 5 5 6 7 8 7 5 4 2 2 2 2 2 3
4 7 10 11 9 7 6 4 4 5 6 6 6 7 8 7 5 5 6 7 6 6 5 4 5 5 3 2 3 4 5 5 5 5 6 6 5 4 3 2 2 2 2
6 8 11 12 10 7 4 3 3 4 4 3 3 5 7 6 5 6 6 5 5 5 4 2 1 1 1 1 3 3 3 4 5 5 6 6 6 5 4 3 4 4 2
9 8 9 10 10 7 5 3 5 6 5 2 1 2 4 5 5 5 4 3 4 4 4 1 0 1 1 2 3 2 2 3 5 7 7 7 7 6 5 5 5 4 3
10 9 8 9 8 7 6 5 7 7 4 1 0 1 3 4 4 4 3 3 3 4 3 1 1 2 2 2 2 2 2 2 3 6 7 7 7 7 7 7 6 4 3
10 10 9 8 7 6 5 6 7 6 4 2 1 0 2 4 5 4 3 3 3 3 1 1 2 3 3 3 2 2 2 2 2 4 6 8 8 8 9 8 6 4 2
10 10 10 8 6 5 4 4 5 5 4 2 1 0 1 3 4 3 3 3 3 2 1 2 3 3 3 3 3 3 3 3 4 5 6 7 8 8 8 7 5 2 1
9 9 8 6 4 4 3 2 2 3 2 1 0 1 2 3 3 3 3 3 3 2 2 3 3 3 3 3 3 3 3 3 4 4 4 5 5 5 4 4 3 1 1
6 6 5 3 2 1 2 2 1 1 0 0 0 2 4 4 4 3 3 3 3 3 3 4 3 3 3 3 3 3 3 3 3 3 3 2 2 1 1 1 1 1 1
4 4 3 1 0 0 0 1 1 0 0 0 0 2 4 4 4 4 3 3 4 5 5 5 4 4 4 3 3 3 3 3 3 3 2 1 0 0 0 0 0 1 1
3 3 2 1 0 0 0 0 0 0 0 0 0 0 1 2 3 3 3 3 3 4 5 6 6 6 5 4 3 3 3 4 4 2 1 0 0 0 0 0 0 1 1
3 3 2 1 0 0 0 0 0 0 0 0 0 0 0 0 1 1 2 2 1 2 3 4 5 6 5 3 3 3 4 5 4 2 1 1 0 0 0 0 0 0 1
3 3 2 1 0 0 0 0 0 0 0 0 0 0 0 0 0 1 1 1 1 2 3 4 4 4 3 1 1 3 4 4 4 4 3 2 1 1 1 0 0 0 0
3 3 3 1 1 0 0 0 0 0 0 0 0 0 0 0 0 1 2 3 3 4 4 3 3 2 1 0 0 1 3 4 4 5 4 3 2 1 1 0 0 0 0
3 3 3 3 2 1 0 0 0 0 0 0 0 0 0 0 0 1 2 3 4 4 3 2 1 1 0 0 0 0 1 2 3 4 4 3 2 1 1 0 0 0 0
3 3 4 4 3 1 0 0 0 0 0 0 0 0 0 0 0 0 2 3 3 2 1 1 0 0 0 0 0 0 0 1 1 2 2 1 1 0 0 0 0 0 0
4 4 4 4 4 3 1 0 0 0 0 0 0 0 0 0 0 0 1 2 2 1 0 0 0 0 0 0 0 0 0 0 0 1 1 0 0 0 0 0 1 1 0
3 4 3 3 3 3 2 1 0 0 0 0 0 0 0 0 0 0 1 1 1 0 0 0 0 0 0 0 0 0 0 0 0 0 0 0 0 0 0 0 1 1 1
3 2 2 2 3 3 2 1 0 0 0 0 0 0 0 0 0 0 0 0 0 0 0 0 0 0 0 0 0 0 0 0 0 0 0 0 0 0 0 0 1 1 0
2 1 1 1 3 3 2 1 0 0 0 0 0 0 0 0 0 0 0 0 0 0 0 0 0 0 0 0 0 0 0 0 0 0 0 0 0 0 0 0 0 0 0
1 0 0 1 2 2 1 0 0 0 0 0 0 0 0 0 0 0 0 0 0 0 0 0 0 0 0 0 0 0 0 0 0 0 0 0 0 0 0 0 0 0 0
0 0 0 0 1 1 0 0 0 0 0 0 0 0 0 0 0 0 0 0 0 0 0 0 0 0 0 0 0 0 0 0 0 0 0 0 0 0 0 0 0 0 0
0 0 0 0 0 0 0 0 0 0 0 0 0 0 0 0 0 0 0 0 0 0 0 0 0 0 0 0 0 0 0 0 0 0 0 0 0 0 0 0 0 0 0
Wind_Speed
3 3 3 3 3 2 1 1 1 1 1 1 2 2 2 2 2 2 2 3 3 4 5 4 4 4 4 4 5 5 5 4 3 4 5 5 6 6 6 6 6 6 6
2 3 3 3 3 3 2 1 1 1 1 1 2 2 3 3 2 2 2 3 4 4 4 5 5 5 4 5 5 4 4 4 4 4 3 4 5 6 7 6 6 6 5
2 2 2 3 3 3 3 2 2 1 2 2 2 2 2 3 2 3 3 3 4 4 5 5 5 5 5 4 4 5 6 5 4 4 4 4 4 2 5 7 6 6 5
2 2 3 3 3 3 2 2 2 2 2 3 3 3 3 3 3 3 2 3 3 4 4 5 5 5 4 4 5 5 5 5 5 4 4 5 3 3 3 5 6 6 6
2 2 3 3 3 3 2 2 2 2 2 3 3 4 3 3 2 2 2 3 2 3 3 4 4 4 4 4 4 4 5 5 5 5 4 4 4 6 5 4 4 4 5
2 2 3 3 3 3 3 2 2 2 2 3 3 3 3 3 3 3 2 2 2 2 2 3 3 4 4 4 5 5 5 5 5 5 5 5 5 5 5 5 5 4 4
2 2 3 4 4 4 3 2 2 2 2 2 2 2 2 2 2 2 2 2 2 2 2 3 3 3 4 4 4 4 4 5 6 6 5 5 5 5 5 5 5 5 4
2 2 3 3 4 4 3 3 2 2 3 2 2 2 2 2 1 2 2 2 2 2 2 2 3 3 3 4 4 4 5 4 5 6 6 4 4 4 4 4 4 5 5
2 2 3 3 4 3 3 3 2 2 2 2 2 1 1 2 2 2 2 1 2 2 2 2 2 3 3 4 4 4 5 4 5 6 6 6 4 4 4 4 5 5 5
2 2 3 3 3 3 3 3 3 2 2 2 2 1 1 1 1 2 2 2 1 1 2 1 2 3 3 3 4 5 4 5 5 5 5 5 5 4 4 5 5 5 6
2 2 2 2 2 2 3 2 2 2 2 2 2 2 1 1 2 2 2 1 1 1 1 1 2 3 3 3 4 4 4 5 4 4 5 5 5 4 4 4 5 5 5
2 2 2 2 3 3 3 3 3 3 2 2 2 2 1 1 2 2 2 2 1 1 1 2 2 2 2 3 4 5 5 5 5 5 5 5 4 5 5 5 5 5 5
1 2 2 2 3 3 3 3 3 3 3 2 2 2 2 2 2 2 2 2 1 1 1 2 2 2 2 3 3 4 4 5 5 5 5 5 5 5 4 5 5 5 5
1 2 2 2 2 2 3 2 2 2 2 2 2 2 2 2 2 1 1 1 1 1 2 2 2 3 2 2 3 4 4 4 5 5 6 6 5 5 5 5 6 6 6
1 1 2 2 3 3 2 2 2 2 2 2 2 2 2 2 2 1 2 2 2 2 2 2 2 3 2 2 3 4 4 4 5 5 5 5 4 4 5 5 5 5 5
1 2 2 2 2 2 2 2 2 2 2 2 3 3 2 2 2 2 2 2 2 2 3 3 3 3 2 3 3 5 4 4 4 4 4 5 5 5 6 5 6 6 6
1 2 2 2 2 3 2 2 2 2 2 2 3 3 3 3 3 2 2 2 2 3 3 3 3 3 3 2 3 5 5 4 3 3 4 4 3 4 5 5 7 7 8
1 1 2 2 2 2 2 2 2 2 2 3 3 3 3 3 3 3 3 3 3 3 3 3 3 3 2 2 3 5 6 4 3 3 4 3 3 3 5 5 6 6 6
1 1 2 2 2 2 2 2 2 2 3 3 3 3 4 3 3 4 4 3 3 3 3 3 3 3 2 2 4 6 4 3 4 4 3 3 3 2 4 5 6 6 6
1 1 1 2 1 2 2 2 3 3 3 4 4 3 3 4 4 4 4 3 3 4 4 3 3 4 3 2 3 5 5 3 3 3 2 1 2 2 3 5 5 6 5
1 1 1 1 1 2 2 2 3 3 4 4 4 3 3 4 3 3 3 3 3 4 4 4 3 3 3 2 2 3 4 4 4 3 2 1 1 1 3 4 4 5 6
1 1 1 1 1 1 1 2 3 3 3 3 4 4 4 4 3 3 4 3 4 4 4 4 4 2 2 2 1 2 4 6 5 4 3 2 0 2 3 3 4 5 6
1 1 2 1 1 2 2 3 3 3 3 3 3 4 4 4 4 4 4 3 3 4 4 4 4 3 2 1 2 3 4 5 4 3 3 3 4 4 4 4 5 5 4
1 1 2 2 2 2 2 3 3 3 3 3 4 4 3 4 3 3 4 4 4 4 5 4 4 4 3 3 3 2 2 3 4 3 3 5 7 6 4 3 3 3 2
1 2 2 2 2 2 2 3 3 3 3 4 4 4 3 3 3 3 3 4 4 5 5 6 5 5 4 4 6 5 5 5 4 4 3 2 2 2 2 2 2 1 1
2 3 3 3 3 3 3 3 3 3 4 4 3 3 3 3 3 3 2 1 2 2 2 3 5 3 3 3 4 4 5 6 5 4 3 2 3 3 3 2 2 1 2
Wind_Direction
32 13 359 354 344 327 316 309 282 197 229 234 248 249 248 251 251 249 242 245 256 256 252 257 241 238 239 249 249 248 238 236 232 239 235 231 229 229 226 228 233 230 234
36 15 357 354 355 342 329 308 304 234 239 236 255 258 276 270 263 263 245 238 236 248 246 249 251 241 236 235 241 243 251 237 225 242 247 238 218 215 223 222 224 234 236
11 355 345 343 344 343 337 326 318 295 268 249 242 249 250 254 251 252 246 242 237 241 250 251 253 247 243 232 231 234 240 244 234 235 251 254 247 223 214 221 228 232 238
352 338 339 346 347 339 340 331 323 311 287 266 256 258 260 266 272 267 258 250 244 251 252 249 247 249 248 235 234 226 233 239 242 230 241 261 282 259 238 219 217 225 233
346 341 349 351 352 348 352 356 350 327 303 280 266 258 269 279 276 272 257 259 248 246 250 250 248 246 244 239 243 240 237 238 245 246 241 240 234 240 252 253 241 235 232
348 353 1 358 357 355 357 355 4 340 312 287 287 281 287 293 296 291 275 260 253 247 250 248 249 246 244 240 241 241 236 242 245 249 248 243 242 239 243 250 246 247 244
7 359 359 355 354 358 360 4 11 340 322 313 309 299 292 281 284 290 278 278 272 261 255 266 254 251 246 245 248 243 245 243 242 243 245 246 248 252 256 258 255 258 255
20 5 6 353 350 359 359 5 9 347 343 341 333 320 293 288 302 312 300 285 291 298 285 269 270 262 252 245 242 246 241 242 245 247 250 254 248 249 250 253 259 260 254
10 8 15 359 352 359 5 6 5 348 345 345 337 329 337 326 328 312 293 309 321 300 287 280 283 275 262 253 248 246 247 244 242 241 235 241 247 246 247 247 248 260 264
3 16 21 8 4 12 19 13 4 2 357 340 338 15 9 350 339 330 355 346 326 310 283 287 294 283 271 258 258 250 242 241 242 246 246 247 249 251 251 246 246 251 261
10 24 29 31 32 30 34 28 19 21 15 5 9 16 13 4 348 354 1 359 342 316 282 277 276 278 271 264 259 263 251 242 241 242 238 241 249 250 256 252 248 248 250
16 30 35 41 37 30 27 28 18 20 19 18 18 18 14 10 351 355 353 352 336 301 281 279 280 287 281 270 260 261 255 248 243 240 238 238 236 236 247 253 254 254 256
25 33 31 32 30 24 20 19 12 11 7 10 17 13 359 358 353 355 359 356 343 309 290 288 289 298 293 281 275 267 259 255 251 246 240 239 236 240 248 253 255 256 253
36 16 15 18 17 10 10 6 8 6 4 355 357 6 357 352 352 353 344 326 320 304 300 299 296 291 278 279 280 272 262 259 253 249 247 245 241 243 247 249 250 252 256
24 10 9 7 359 359 356 348 353 353 349 332 337 354 346 350 358 351 344 329 316 309 311 306 301 293 280 304 301 288 273 266 258 250 250 249 243 255 259 265 264 260 258
350 346 356 357 346 345 337 332 324 329 325 323 334 342 343 352 356 354 347 335 324 314 305 301 298 292 313 16 325 295 281 277 273 270 262 250 225 224 228 244 260 262 258
347 342 344 337 327 324 321 321 314 322 324 323 327 339 347 352 347 336 340 340 325 314 308 309 309 312 358 359 317 302 286 282 282 275 275 273 254 239 245 233 233 239 245
347 329 322 322 316 315 324 326 313 321 325 325 330 331 333 339 335 332 339 334 322 316 311 312 314 314 342 328 294 289 271 283 279 274 273 273 274 267 266 258 253 250 245
356 329 311 312 319 336 334 320 312 315 327 329 330 333 332 331 321 324 333 329 319 312 304 304 307 305 312 297 282 281 274 273 272 270 272 273 272 303 274 254 255 254 249
26 350 319 323 342 344 340 321 316 320 324 325 323 326 326 320 310 313 319 324 309 304 305 313 316 313 314 315 293 285 278 283 277 265 254 277 302 313 286 262 262 262 262
9 338 316 341 351 352 338 319 320 328 327 323 319 318 320 313 306 307 303 306 298 304 305 308 303 304 310 327 319 293 292 299 296 296 289 316 134 273 279 276 279 282 280
353 326 308 343 359 359 331 322 327 330 327 326 323 323 322 313 316 305 292 291 293 291 292 294 297 299 295 320 315 266 272 299 296 299 307 333 150 255 262 264 292 292 280
303 301 297 312 349 343 327 322 329 326 323 322 321 320 322 318 313 306 300 289 282 292 307 307 308 310 305 254 209 225 241 262 278 302 309 285 255 253 240 233 248 259 263
286 288 292 304 326 328 325 319 319 318 311 311 311 308 312 314 317 310 308 314 317 312 311 314 317 320 324 327 323 298 262 239 254 280 257 230 236 241 257 252 228 247 283
295 291 295 297 306 313 313 317 317 303 301 305 307 307 310 308 302 303 325 325 336 336 319 325 325 326 332 354 352 334 331 327 325 310 287 291 290 282 272 267 264 256 246
298 291 293 291 295 300 301 305 299 290 290 292 298 301 304 305 294 294 292 342 298 334 327 313 314 333 346 338 332 315 305 296 293 289 290 300 303 306 308 302 289 274 269